星链-35618(STARLINK-35618)

导读 | 豆包AI

STARLINK-35618是美国太空探索技术公司(SpaceX)于2025年11月11日发射的星链(Starlink)低轨通信卫星。星链项目旨在为全球提供高速低延迟宽带互联网服务,该卫星采用平板设计,搭载霍尔推进器,支持Ku/Ka波段通信与激光星间链路,服务覆盖偏远地区通信、灾害应急响应等场景,设计寿命约5-7年,退役后将受控坠入大气层焚毁。

基本信息
目录编号:
66423
目录名称:
STARLINK-35618
国际标识:
2025-259B
轨道中心:
EARTH
卫星名称:
星链-35618
卫星全名:
星链-35618(STARLINK-35618)
卫星状态:
在轨 (已飞行123 天)
发射日期:
2025-11-11 UTC
国别 :
美国 (US)
星等 :
--
轨道信息
数据来源 国际轨道数据
星历时间: 2026-03-13T21:45:04+0800
17小时前
查看轨道信息
半长轴: 6861.141km
偏心率: 0.0001598
轨道倾角: 42.998°
近地点辐角 257.131°
升交点赤经 252.554°
平近点角 102.937°
近地点: 481.907km
远地点: 484.101km
周期: 94.266分钟
每日圈数: 15.275951
详细信息
固有亮度:
5
最大亮度:
2.5
卫星平台:
Starlink V1.0
覆盖范围:
全球
运营商:
太空探索技术公司
运营商所在国:
美国
制造商(研发单位):
太空探索技术公司
制造商所在国:
美国
使用方式:
暂无
卫星简介
Starlink 计划是 SpaceX 推出的全球卫星互联网项目,通过发射低轨道卫星,为全球尤其是偏远地区提供高速、低延迟的互联网服务。自 2019 年起,Starlink 已部署数千颗卫星,旨在缩小全球数字鸿沟,推动互联网普及。该项目还为军事、航空等行业提供通信支持,带来广泛经济效益。
2D轨道图
3D轨道图
轨道高度分析图
轨道倾角分析图
轨道综合分析图
查看轨道综合分析图